Simultaneous Nadir Overpasses (SNOs) Predictions

Prediction of SNOs between NOAA-19 and METOP-C Satellite Orbit:

Table of predicted SNOs for the next 14.0 days since TLE Epoch: 6/18/2021
Index Date (NOAA-19) Time (NOAA-19) Lat,Lon (NOAA-19) SZA (NOAA-19 ) Date (METOP-C) Time (METOP-C) Lat,Lon (METOP-C) SZA (METOP-C ) Distance(km) Time Diff (sec)
1 06/28/2021 06:20:48 80.55, 113.35 58.42 06/28/2021 06:21:48 80.55, 113.41 58.44 1.14 60
2 06/28/2021 07:11:46 -80.54, -79.13 121.58 06/28/2021 07:12:30 -80.56, -79.21 121.55 2.43 44
3 06/28/2021 08:02:48 80.55, 87.96 58.42 06/28/2021 08:03:10 80.54, 87.92 58.43 0.79 22
4 06/28/2021 08:53:47 -80.55,-104.86 121.58 06/28/2021 08:53:52 -80.55,-104.70 121.57 2.95 5
5 06/28/2021 09:44:48 80.54, 62.57 58.43 06/28/2021 09:44:32 80.53, 62.44 58.41 2.64 16
6 06/28/2021 10:35:47 -80.55,-130.25 121.57 06/28/2021 10:35:14 -80.54,-130.19 121.59 1.50 33
7 06/28/2021 11:26:48 80.54, 37.18 58.44 06/28/2021 11:25:53 80.55, 37.28 58.44 2.12 55



Historial Predications of SNOs between NOAA-19 and METOP-C
